星链-33595 (STARLINK-33595)

导读

STARLINK-33595是美国SpaceX公司星链(Starlink)星座的一员,于2025年1月21日发射入轨。星链星座旨在为全球提供低延迟宽带互联网服务,尤其覆盖基础设施匮乏的偏远地区。该卫星采用平板设计,配备单块太阳电池阵,以氪为工质的霍尔推进器,具备自主避撞能力,设计寿命5-7年,退役后将主动离轨再入大气层烧毁,减少太空垃圾影响。

Basic Information
目录编号:
62766
目录名称:
STARLINK-33595
国际标识:
2025-015J
轨道中心:
EARTH
卫星名称:
星链-33595
卫星全名:
星链-33595 (STARLINK-33595)
卫星状态:
在轨 (已飞行591 天)
发射日期:
2025-01-21 UTC
国别 :
美国 (US)
星等 :
--
Orbit Information
数据来源 国际轨道数据 AOE轨道数据
星历时间 2026-09-03T11:42:42+0800
1天前
查看轨道信息
2026-08-28T23:00:00+0800
6天前
查看轨道信息
半长轴 6840.852km 6840.875km
偏心率 0.0001473 0.0001309
轨道倾角 53.158° 53.157°
近地点辐角 90.979° 91.417°
升交点赤经 214.477° 240.327°
平近点角 269.138° 306.893°
近地点 461.707km 461.842km
远地点 463.723km 463.634km
周期 93.848分钟 93.848分钟
每日圈数 15.343963 15.343886
Detailed Information
固有亮度:
5
最大亮度:
2.5
卫星平台:
Starlink V1.0
覆盖范围:
全球
运营商:
太空探索技术公司
运营商所在国:
美国
制造商(研发单位):
太空探索技术公司
制造商所在国:
美国
使用方式:
暂无
Satellite Introduction
Starlink 计划是 SpaceX 推出的全球卫星互联网项目,通过发射低轨道卫星,为全球尤其是偏远地区提供高速、低延迟的互联网服务。自 2019 年起,Starlink 已部署数千颗卫星,旨在缩小全球数字鸿沟,推动互联网普及。该项目还为军事、航空等行业提供通信支持,带来广泛经济效益。
2D Orbit Map
3D Orbit Map
Orbit Altitude Analysis Chart
Orbit Inclination Analysis Chart
Orbit Comprehensive Analysis Chart
View Comprehensive Chart
Conjunction Data List
Event ID Objects TCA Miss Dist (km) Collision Risk Probability Collision Risk Index (CRI) Action
CDM_260905-065902-822006-276621
TANSUO 1 (28220)
2026-09-05T
06:59:00+0000
0.969 km
远距离
2.83071E-5 中风险 0.64
CDM_260904-112403-382106-276621
2026-09-04T
11:24:33+0000
2.440 km
极远距离
1.40385E-6 低风险 0.38
CDM_260905-085804-974806-276621
2026-09-05T
08:58:39+0000
2.777 km
极远距离
1.292991E-6 低风险 0.37
CDM_260905-074405-178606-276621
2026-09-05T
07:44:56+0000
2.605 km
极远距离
8.567616E-7 极低风险 0.34